Back to catalog

COSMOS 1972

GLONASS

AliveNavigationMEO
NORAD 19503·PAYLOAD·🇷🇺 Russia

Launched Sep 16, 1988 from Baikonur Cosmodrome

Loading…

Next Passes (next 24 hours)

TLE

FreshSource: Space-Track

Epoch: Sep 11, 2026, 06:07 UTC

1 19503U 88085C   26254.25519778 -.00000039  00000-0  00000-0 0  9993
2 19503  65.2192 311.9274 0005717 202.1957 161.7219  2.13102294295476

Track COSMOS 1972 in real time with AllMySat

Download on the App Store